FW8442 Weather Reports


time (UTC)temp
C
wind
direction
speed
KPH
gust
KPH
rain 1hr
cm
rain 24hr
cm
rain mn
cm
humidity
%
barometer
mb
20260506201548 18 206 0.0 8.0 0.00 0.03 0.03 77 1006.6
20260506200045 18 240 3.2 12.9 0.00 0.03 0.03 77 1006.6
20260506194547 18 247 0.0 6.4 0.00 0.03 0.03 77 1007.0
20260506193048 18 245 3.2 9.7 0.00 0.03 0.03 76 1007.2
20260506191549 19 283 1.6 8.0 0.00 0.03 0.03 73 1007.0
20260506190050 18 274 1.6 11.3 0.00 0.03 0.03 74 1007.1
20260506184558 18 227 4.8 17.7 0.00 0.03 0.03 73 1007.1
20260506183048 18 193 3.2 12.9 0.00 0.03 0.03 74 1007.3
20260506181548 20 219 3.2 14.5 0.00 0.03 0.03 71 1007.4
20260506180056 21 245 3.2 11.3 0.00 0.03 0.03 67 1007.5
20260506174547 21 264 4.8 11.3 0.00 0.03 0.03 68 1007.5
20260506173049 20 216 3.2 9.7 0.00 0.03 0.03 71 1007.2
20260506171557 19 203 1.6 9.7 0.03 0.03 0.03 73 1007.7
20260506170053 18 208 0.0 4.8 0.03 0.03 0.03 76 1007.9
20260506164551 18 267 0.0 6.4 0.03 0.03 0.03 76 1008.5
20260506163052 18 122 0.0 4.8 0.03 0.03 0.03 76 1008.9
20260506161549 18 244 0.0 8.0 0.00 0.00 0.00 73 1009.0
20260506160059 20 230 4.8 11.3 0.00 0.00 0.00 67 1009.2
20260506154551 21 276 1.6 8.0 0.00 0.00 0.00 61 1009.0
20260506153049 21 294 1.6 14.5 0.00 0.00 0.00 62 1009.0
20260506151557 21 199 1.6 16.1 0.00 0.00 0.00 63 1008.9
20260506150047 21 232 4.8 12.9 0.00 0.00 0.00 62 1009.1
20260506144559 21 17 3.2 12.9 0.00 0.00 0.00 61 1009.0
20260506143050 22 262 1.6 12.9 0.00 0.00 0.00 63 1009.1
20260506141550 21 293 1.6 8.0 0.00 0.00 0.00 64 1008.9
20260506140046 21 231 1.6 9.7 0.00 0.00 0.00 63 1008.8
20260506134546 21 258 3.2 11.3 0.00 0.00 0.00 63 1008.8
20260506133047 21 229 4.8 16.1 0.00 0.00 0.00 63 1009.1
20260506131605 21 291 4.8 14.5 0.00 0.00 0.00 66 1009.4
20260506130046 20 259 1.6 11.3 0.00 0.00 0.00 68 1009.3
20260506124547 19 311 1.6 11.3 0.00 0.00 0.00 70 1009.2
20260506123051 18 271 1.6 8.0 0.00 0.00 0.00 72 1009.4
20260506121547 18 259 3.2 12.9 0.00 0.00 0.00 72 1009.5
20260506120052 18 222 4.8 11.3 0.00 0.00 0.00 72 1009.5
20260506114554 18 175 1.6 9.7 0.00 0.00 0.00 73 1009.6
20260506113045 17 228 1.6 11.3 0.00 0.00 0.00 74 1009.7
20260506111547 17 305 1.6 12.9 0.00 0.00 0.00 76 1009.8
20260506110048 17 113 1.6 9.7 0.00 0.00 0.00 77 1009.7
20260506104551 16 237 1.6 12.9 0.00 0.00 0.00 78 1009.6
20260506103055 16 248 1.6 11.3 0.00 0.00 0.00 79 1009.6
20260506101552 16 223 0.0 8.0 0.00 0.00 0.00 78 1009.5
20260506100105 16 170 1.6 8.0 0.00 0.00 0.00 78 1009.3
20260506094549 16 255 3.2 11.3 0.00 0.00 0.00 78 1009.3
20260506093049 16 4 1.6 8.0 0.00 0.00 0.00 78 1009.4
20260506091552 16 0 1.6 9.7 0.00 0.00 0.00 78 1009.5
20260506090048 17 0 1.6 8.0 0.00 0.00 0.00 78 1009.5
20260506084546 17 202 1.6 6.4 0.00 0.00 0.00 78 1009.7
20260506083049 17 84 0.0 8.0 0.00 0.00 0.00 77 1009.6
20260506081549 17 244 1.6 6.4 0.00 0.00 0.00 77 1009.7
20260506073054 17 201 1.6 6.4 0.00 0.00 0.00 77 1009.6
20260506071556 17 217 1.6 6.4 0.00 0.00 0.00 76 1009.8
20260506061543 17 141 1.6 8.0 0.00 0.00 0.00 73 1010.0
20260506044552 18 252 1.6 6.4 0.00 0.00 0.00 69 1010.6
20260506043052 18 236 1.6 8.0 0.00 0.00 0.00 68 1010.7
20260506041555 18 189 0.0 9.7 0.00 0.00 0.00 68 1010.6
20260506040055 19 264 1.6 9.7 0.00 0.00 0.00 67 1010.7
20260506034549 19 172 3.2 9.7 0.00 0.00 0.00 67 1010.6
20260506033047 19 259 1.6 9.7 0.00 0.00 0.00 66 1010.5
20260506031546 19 0 1.6 9.7 0.00 0.00 0.00 65 1010.6
20260506030057 20 212 1.6 11.3 0.00 0.00 0.00 63 1010.6
20260506024553 20 286 1.6 12.9 0.00 0.00 0.00 62 1010.5
20260506023050 20 107 3.2 11.3 0.00 0.00 0.00 60 1010.5
20260506021547 20 0 3.2 14.5 0.00 0.00 0.00 60 1010.6
20260506020048 20 162 1.6 12.9 0.00 0.00 0.00 60 1010.2
20260506014558 20 231 1.6 9.7 0.00 0.00 0.00 59 1010.3
20260506013045 21 175 1.6 8.0 0.00 0.00 0.00 59 1010.0
20260506011551 21 174 3.2 9.7 0.00 0.00 0.00 58 1009.8
20260506010051 21 124 1.6 8.0 0.00 0.00 0.00 58 1009.7
20260506004551 22 231 3.2 11.3 0.00 0.00 0.00 56 1009.6
20260506003049 22 164 3.2 12.9 0.00 0.00 0.00 54 1009.4
20260506001552 23 150 1.6 12.9 0.00 0.00 0.00 46 1009.2
20260506000056 24 267 1.6 16.1 0.00 0.00 0.00 44 1009.2
20260505234544 25 275 3.2 12.9 0.00 0.00 0.00 43 1009.1
20260505233045 25 214 3.2 11.3 0.00 0.00 0.00 42 1008.9
20260505231549 26 213 4.8 16.1 0.00 0.00 0.00 41 1008.7
20260505230050 26 271 1.6 14.5 0.00 0.00 0.00 39 1008.6
20260505224549 26 243 4.8 17.7 0.00 0.00 0.00 37 1008.0
20260505223052 26 270 3.2 19.3 0.00 0.00 0.00 36 1008.1
20260505221546 27 252 6.4 17.7 0.00 0.00 0.00 36 1007.8
20260505220050 27 229 6.4 17.7 0.00 0.00 0.00 35 1007.6
20260505214548 27 269 3.2 12.9 0.00 0.00 0.00 34 1007.4
20260505213048 27 278 6.4 17.7 0.00 0.00 0.00 33 1007.6
20260505211549 27 231 3.2 12.9 0.00 0.00 0.00 36 1007.5
20260505210049 27 279 6.4 17.7 0.00 0.00 0.00 34 1007.4
20260505204545 28 231 4.8 14.5 0.00 0.00 0.00 35 1007.4
20260505203052 28 265 1.6 12.9 0.00 0.00 0.00 34 1007.5